When you browse on this site, cookies collect data to enhance your experience and personalize the content and advertising you see.
Visit our Privacy Policy to learn more. By continuing to use the site, you agree to this use of cookies and data.

Meteo pe oră la Tiba

Astăzi, 13 Iulie, Luni

Timp Temperatura Precipitaţii Vânt Presiune Umiditate
00:00 +25°C° 0 mm 3 m/s 755 mmHg 70%
01:00 +24°C° 0 mm 3 m/s 755 mmHg 71%
02:00 +24°C° 0 mm 3 m/s 755 mmHg 72%
03:00 +24°C° 0 mm 3 m/s 756 mmHg 73%
04:00 +24°C° 0 mm 3 m/s 756 mmHg 74%
05:00 +24°C° 0 mm 3 m/s 757 mmHg 74%
06:00 +24°C° 0 mm 3 m/s 757 mmHg 75%
07:00 +24°C° 0 mm 2 m/s 757 mmHg 73%
08:00 +25°C° 0 mm 2 m/s 757 mmHg 71%
09:00 +24°C° 0 mm 2 m/s 758 mmHg 71%
10:00 +24°C° 0 mm 2 m/s 758 mmHg 69%
11:00 +25°C° 0 mm 2 m/s 758 mmHg 66%
12:00 +25°C° 0 mm 2 m/s 757 mmHg 64%
13:00 +26°C° 0 mm 2 m/s 757 mmHg 62%
14:00 +27°C° 0 mm 3 m/s 757 mmHg 61%
15:00 +27°C° 0 mm 4 m/s 757 mmHg 59%
16:00 +26°C° 0.3 mm 4 m/s 757 mmHg 65%
17:00 +25°C° 0.3 mm 4 m/s 757 mmHg 71%
18:00 +25°C° 0.3 mm 3 m/s 757 mmHg 77%
19:00 +25°C° 0.9 mm 3 m/s 757 mmHg 80%
20:00 +24°C° 0.9 mm 3 m/s 757 mmHg 83%
21:00 +24°C° 0.9 mm 3 m/s 756 mmHg 85%
22:00 +24°C° 1 mm 3 m/s 756 mmHg 85%
23:00 +23°C° 1 mm 4 m/s 756 mmHg 84%

Mâine, 14 Iulie, Marţi

Timp Temperatura Precipitaţii Vânt Presiune Umiditate
00:00 +23°C° 1 mm 4 m/s 756 mmHg 83%
01:00 +23°C° 0.1 mm 4 m/s 755 mmHg 82%
02:00 +24°C° 0.1 mm 3 m/s 755 mmHg 81%
03:00 +24°C° 0.1 mm 3 m/s 754 mmHg 80%
04:00 +24°C° 0.7 mm 3 m/s 754 mmHg 81%
05:00 +23°C° 0.7 mm 4 m/s 754 mmHg 83%
06:00 +23°C° 0.7 mm 4 m/s 754 mmHg 84%
07:00 +25°C° 1.5 mm 4 m/s 754 mmHg 85%
08:00 +25°C° 1.5 mm 5 m/s 754 mmHg 87%
09:00 +25°C° 1.5 mm 5 m/s 754 mmHg 88%
10:00 +24°C° 2.3 mm 6 m/s 754 mmHg 87%
11:00 +26°C° 2.3 mm 7 m/s 754 mmHg 87%
12:00 +26°C° 2.3 mm 7 m/s 753 mmHg 86%
13:00 +26°C° 1 mm 7 m/s 753 mmHg 85%
14:00 +26°C° 1 mm 8 m/s 752 mmHg 83%
15:00 +26°C° 1 mm 8 m/s 751 mmHg 81%
16:00 +26°C° 0.2 mm 8 m/s 751 mmHg 78%
17:00 +26°C° 0.2 mm 8 m/s 751 mmHg 75%
18:00 +26°C° 0.2 mm 8 m/s 751 mmHg 72%
19:00 +26°C° 0 mm 8 m/s 751 mmHg 75%
20:00 +26°C° 0 mm 8 m/s 750 mmHg 77%
21:00 +26°C° 0 mm 8 m/s 750 mmHg 80%
22:00 +26°C° 0.1 mm 8 m/s 750 mmHg 81%
23:00 +26°C° 0.1 mm 7 m/s 750 mmHg 82%

Poimâine, 15 Iulie, Miercuri

Timp Temperatura Precipitaţii Vânt Presiune Umiditate
00:00 +26°C° 0.1 mm 7 m/s 749 mmHg 83%
01:00 +26°C° 0 mm 7 m/s 749 mmHg 82%
02:00 +26°C° 0 mm 7 m/s 748 mmHg 81%
03:00 +26°C° 0 mm 7 m/s 748 mmHg 81%
04:00 +26°C° 0 mm 6 m/s 748 mmHg 81%
05:00 +27°C° 0 mm 5 m/s 748 mmHg 81%
06:00 +27°C° 0 mm 4 m/s 748 mmHg 82%
07:00 +27°C° 0 mm 3 m/s 748 mmHg 77%
08:00 +28°C° 0 mm 2 m/s 748 mmHg 73%
09:00 +29°C° 0 mm 2 m/s 748 mmHg 68%
10:00 +29°C° 0.2 mm 2 m/s 748 mmHg 66%
11:00 +29°C° 0.2 mm 3 m/s 748 mmHg 64%
12:00 +29°C° 0.2 mm 4 m/s 748 mmHg 62%
13:00 +29°C° 0 mm 4 m/s 747 mmHg 60%
14:00 +30°C° 0 mm 5 m/s 747 mmHg 58%
15:00 +30°C° 0 mm 5 m/s 747 mmHg 56%
16:00 +29°C° 0.1 mm 5 m/s 747 mmHg 60%
17:00 +28°C° 0.1 mm 4 m/s 748 mmHg 64%
18:00 +27°C° 0.1 mm 4 m/s 748 mmHg 69%
19:00 +26°C° 0.1 mm 4 m/s 749 mmHg 71%
20:00 +25°C° 0.1 mm 5 m/s 749 mmHg 73%
21:00 +23°C° 0.1 mm 5 m/s 750 mmHg 75%
22:00 +23°C° 0.1 mm 5 m/s 750 mmHg 76%
23:00 +23°C° 0.1 mm 5 m/s 750 mmHg 76%

16 Iulie, Joi

Timp Temperatura Precipitaţii Vânt Presiune Umiditate
00:00 +23°C° 0.1 mm 4 m/s 750 mmHg 77%
01:00 +23°C° 0 mm 4 m/s 751 mmHg 77%
02:00 +23°C° 0 mm 4 m/s 751 mmHg 76%
03:00 +22°C° 0 mm 4 m/s 751 mmHg 76%
04:00 +22°C° 0.1 mm 4 m/s 751 mmHg 76%
05:00 +22°C° 0.1 mm 4 m/s 752 mmHg 76%
06:00 +22°C° 0.1 mm 3 m/s 752 mmHg 76%
07:00 +22°C° 0 mm 3 m/s 753 mmHg 75%
08:00 +24°C° 0 mm 3 m/s 753 mmHg 75%
09:00 +24°C° 0 mm 3 m/s 753 mmHg 74%
10:00 +25°C° 0 mm 3 m/s 753 mmHg 70%
11:00 +26°C° 0 mm 2 m/s 753 mmHg 67%
12:00 +27°C° 0 mm 2 m/s 753 mmHg 63%
13:00 +27°C° 0 mm 2 m/s 753 mmHg 64%
14:00 +27°C° 0 mm 3 m/s 753 mmHg 65%
15:00 +26°C° 0 mm 3 m/s 753 mmHg 67%
16:00 +26°C° 0 mm 3 m/s 754 mmHg 69%
17:00 +26°C° 0 mm 3 m/s 754 mmHg 71%
18:00 +26°C° 0 mm 2 m/s 754 mmHg 72%
19:00 +26°C° 0 mm 3 m/s 755 mmHg 75%
20:00 +25°C° 0 mm 3 m/s 755 mmHg 77%
21:00 +25°C° 0 mm 3 m/s 756 mmHg 79%
22:00 +25°C° 0 mm 2 m/s 755 mmHg 81%
23:00 +25°C° 0 mm 2 m/s 755 mmHg 82%

17 Iulie, Vineri

Timp Temperatura Precipitaţii Vânt Presiune Umiditate
00:00 +25°C° 0 mm 2 m/s 755 mmHg 83%
01:00 +25°C° 0.4 mm 2 m/s 755 mmHg 85%
02:00 +25°C° 0.4 mm 2 m/s 755 mmHg 87%
03:00 +24°C° 0.4 mm 2 m/s 754 mmHg 89%
04:00 +24°C° 3.5 mm 2 m/s 754 mmHg 90%
05:00 +24°C° 3.5 mm 2 m/s 754 mmHg 91%
06:00 +24°C° 3.5 mm 2 m/s 754 mmHg 92%
07:00 +24°C° 1.4 mm 3 m/s 754 mmHg 90%
08:00 +25°C° 1.4 mm 3 m/s 755 mmHg 88%
09:00 +25°C° 1.4 mm 3 m/s 755 mmHg 86%
10:00 +26°C° 0 mm 3 m/s 755 mmHg 83%
11:00 +26°C° 0 mm 3 m/s 755 mmHg 80%
12:00 +27°C° 0 mm 3 m/s 755 mmHg 77%
13:00 +27°C° 0 mm 3 m/s 755 mmHg 75%
14:00 +27°C° 0 mm 2 m/s 755 mmHg 73%
15:00 +28°C° 0 mm 2 m/s 755 mmHg 71%
16:00 +27°C° 0.5 mm 2 m/s 756 mmHg 75%
17:00 +26°C° 0.5 mm 2 m/s 756 mmHg 79%
18:00 +26°C° 0.5 mm 2 m/s 756 mmHg 84%
19:00 +25°C° 0.2 mm 2 m/s 757 mmHg 85%
20:00 +25°C° 0.2 mm 2 m/s 757 mmHg 86%
21:00 +25°C° 0.2 mm 2 m/s 758 mmHg 87%
22:00 +25°C° 0 mm 2 m/s 758 mmHg 87%
23:00 +25°C° 0 mm 1 m/s 758 mmHg 88%

18 Iulie, Sâmbătă

Timp Temperatura Precipitaţii Vânt Presiune Umiditate
00:00 +25°C° 0 mm 1 m/s 758 mmHg 89%
01:00 +25°C° 0.1 mm 1 m/s 758 mmHg 89%
02:00 +25°C° 0.1 mm 1 m/s 758 mmHg 90%
03:00 +25°C° 0.1 mm 1 m/s 758 mmHg 90%
04:00 +25°C° 0.5 mm 1 m/s 758 mmHg 90%
05:00 +25°C° 0.5 mm 1 m/s 758 mmHg 90%
06:00 +25°C° 0.5 mm 2 m/s 758 mmHg 91%
07:00 +26°C° 0.4 mm 2 m/s 758 mmHg 88%
08:00 +26°C° 0.4 mm 2 m/s 759 mmHg 86%
09:00 +27°C° 0.4 mm 2 m/s 759 mmHg 84%
10:00 +27°C° 0.8 mm 2 m/s 759 mmHg 80%
11:00 +28°C° 0.8 mm 2 m/s 758 mmHg 76%
12:00 +29°C° 0.8 mm 3 m/s 758 mmHg 73%
13:00 +29°C° 1 mm 3 m/s 758 mmHg 73%
14:00 +29°C° 1 mm 3 m/s 758 mmHg 73%
15:00 +29°C° 1 mm 4 m/s 758 mmHg 73%
16:00 +29°C° 1.3 mm 3 m/s 758 mmHg 75%
17:00 +28°C° 1.3 mm 3 m/s 758 mmHg 78%
18:00 +28°C° 1.3 mm 3 m/s 758 mmHg 80%
19:00 +28°C° 0.1 mm 3 m/s 758 mmHg 82%
20:00 +27°C° 0.1 mm 3 m/s 758 mmHg 83%
21:00 +27°C° 0.1 mm 2 m/s 758 mmHg 85%
22:00 +27°C° 0.1 mm 2 m/s 758 mmHg 86%
23:00 +26°C° 0.1 mm 1 m/s 758 mmHg 86%
Arată mai mult